Home > Weather > Stange > Past weeks

Flag for Norway Weather for the Past 2 Weeks in Stange, Norway

Now
35 °F

Chilly.


Feels Like: 35 °F
Forecast: 34 / 65 °F
Wind: 1 mph from North

Location: Haugedalshogda

Current Time: May 7, 2016 at 12:37:50 AM

Latest Report: May 7, 2016 at 12:00 AM


Visibility: N/A

Pressure: 30.20 "Hg

Humidity: 87%

Dew Point: 31 °F

Location of StangeLocation

Historic Weather in Stange — Graph

°F

Stange Temperature Yesterday

Maximum temperature yesterday: 64 °F (at 5:00 PM)
Minimum temperature yesterday: 27 °F (at 4:00 AM)
Average temperature yesterday: 47 °F

High & Low Weather Summary for the Past Weeks

 TemperatureHumidityPressure
High64 °F (May 6, 5:00 PM)100% (May 4, 3:00 AM)30.35 "Hg (May 4, 3:00 AM)
Low14 °F (Apr 23, 5:00 AM)24% (Apr 25, 5:00 PM)29.58 "Hg (Apr 29, 5:00 AM)
Average38 °F66%30.01 "Hg
* Reported Apr 21 11:00 PM — May 6 11:00 PM, Stange, Weather by CustomWeather, © 2016

Note: Actual official high and low records may vary slightly from our data, if they occured in-between our weather recording intervals... More about our weather records

Advertising

Stange Weather History for the Previous 24 Hours

Scroll right to see more
 ConditionsComfort  
Time TempWeatherWind HumidityBarometerVisibility
11:00 PM
Fri, May 6
38 °FChilly.1 mph81%30.19 "HgN/A
10:00 PM41 °FQuite cool.1 mph78%30.18 "HgN/A
9:00 PM48 °FCool.No wind65%30.16 "HgN/A
8:00 PM55 °FRefreshingly cool.2 mph40%30.14 "HgN/A
7:00 PM60 °FRefreshingly cool.5 mph30%30.14 "HgN/A
6:00 PM62 °FRefreshingly cool.5 mph29%30.14 "HgN/A
5:00 PM64 °FMild.5 mph28%30.14 "HgN/A
4:00 PM61 °FRefreshingly cool.5 mph31%30.16 "HgN/A
3:00 PM62 °FRefreshingly cool.6 mph29%30.16 "HgN/A
2:00 PM61 °FRefreshingly cool.5 mph30%30.17 "HgN/A
1:00 PM60 °FRefreshingly cool.3 mph31%30.18 "HgN/A
12:00 PM58 °FRefreshingly cool.5 mph35%30.19 "HgN/A
11:00 AM56 °FRefreshingly cool.5 mph37%30.20 "HgN/A
10:00 AM52 °FCool.3 mph56%30.22 "HgN/A
9:00 AM48 °FCool.3 mph66%30.24 "HgN/A
8:00 AM44 °FQuite cool.1 mph72%30.25 "HgN/A
7:00 AM38 °FChilly.1 mph89%30.26 "HgN/A
6:00 AM33 °FChilly.1 mph96%30.27 "HgN/A
5:00 AM30 °FChilly.No wind96%30.27 "HgN/A
4:00 AM27 °FChilly.1 mph94%30.28 "HgN/A
3:00 AM30 °FChilly.No wind93%30.27 "HgN/A
2:00 AM31 °FChilly.No wind88%30.27 "HgN/A
1:00 AM34 °FChilly.3 mph81%30.26 "HgN/A
12:00 AM32 °FChilly.1 mph87%30.26 "HgN/A
Weather by CustomWeather, © 2016

See weather overviewHow to use our weather pages